Regional Weather Roundup
Issued by NWS

Home | Current Version | Previous Version | Text Only | Print | Product List | Glossary Off
Versions: 1 2 3 4 5 6 7 8 9 10 11 12 13 14 15 16 17 18 19 20 21 22 23 24 25 26 27 28 29 30 31 32 33 34 35 36 37 38 39 40 41 42 43 44 45 46 47 48 49 50

000
ASUS43 KOAX 181510
RWRNE

WEATHER ROUNDUP FOR NEBRASKA
NATIONAL WEATHER SERVICE OMAHA NE
900 AM CST THU DEC 18 2014

NOTES: SATELLITE DATA IS BEING USED TO AUGMENT CLOUD COVER ABOVE
       12000 FEET.
       "FAIR" INDICATES FEW OR NO CLOUDS BELOW 12,000 FEET WITH NO
       SIGNIFICANT WEATHER AND/OR OBSTRUCTIONS TO VISIBILITY.

  * THESE STATIONS DO NOT REPORT WEATHER SUCH AS RAIN...SNOW OR FOG.

NEZ001>004-019>022-054>056-181600-
NEBRASKA PANHANDLE

CITY           SKY/WX    TMP DP  RH WIND       PRES   REMARKS
SCOTTSBLUFF    CLOUDY     6   3  87 NW6       30.05S FOG     WCI  -4
ALLIANCE       PTCLDY     3  -1  83 CALM      30.02R
CHADRON        PTCLDY     5   1  83 W5        30.05R WCI  -4
KIMBALL        PTCLDY    21  16  81 NW9       30.00R WCI  10
SIDNEY         MOCLDY    16  12  84 W13       30.03R WCI   2
$$

NEZ057>060-069>072-079>082-181600-
SOUTHWEST NEBRASKA

CITY           SKY/WX    TMP DP  RH WIND       PRES   REMARKS
NORTH PLATTE   CLOUDY    25  23  92 SW6       30.11R WCI  18
IMPERIAL       CLOUDY    25  23  92 CALM      30.09R FOG
LEXINGTON      CLOUDY    26  24  92 S3        30.14S
MCCOOK         CLOUDY    24  22  91 S3        30.13R FOG
OGALLALA       FOG       23  22  97 W6        30.08R VSB 3/4 WCI  16
$$

NEZ005>010-023>029-035>040-094-181600-
NORTH CENTRAL NEBRASKA

CITY           SKY/WX    TMP DP  RH WIND       PRES   REMARKS
VALENTINE      CLOUDY    26  22  84 SW3       30.07S
AINSWORTH      CLOUDY    24  23  96 CALM      30.08S
BROKEN BOW     CLOUDY    25  23  92 S9        30.12R FOG     WCI  15
O`NEILL        CLOUDY    24  23  96 CALM      30.16R
ORD            CLOUDY    23  20  88 SE7       30.15R FOG     WCI  15
THEDFORD       CLOUDY    26  24  93 SW5       30.08S WCI  21
$$

NEZ041-046>049-061>064-073>077-083>087-181600-
SOUTH CENTRAL NEBRASKA

CITY           SKY/WX    TMP DP  RH WIND       PRES   REMARKS
GRAND ISLAND   CLOUDY    24  21  88 SE3       30.20R
AURORA         CLOUDY    25  24  95 CALM      30.19R FOG
HASTINGS       CLOUDY    24  22  91 S5        30.17R WCI  18
HEBRON         LGT SNOW  26  24  91 CALM      30.22R
HOLDREGE       CLOUDY    25  23  91 CALM      30.15R
KEARNEY *      CLOUDY    25  21  86 SE7       30.17R WCI  17
YORK           CLOUDY    25 N/A N/A SE3       30.20R
$$

NEZ011>018-030>034-042>045-181600-
NORTHEAST NEBRASKA

CITY           SKY/WX    TMP DP  RH WIND       PRES   REMARKS
NORFOLK        CLOUDY    26  22  84 S5        30.20R WCI  20
ALBION         CLOUDY    24  20  87 S5        30.18S WCI  18
BLAIR          LGT SNOW  27  24  88 E6        30.22S WCI  20
COLUMBUS *     CLOUDY    25  19  80 CALM      30.22R
FREMONT        LGT SNOW  28  26  92 SE5       30.23R WCI  23
TEKAMAH        CLOUDY    27  21  78 SE8       30.25R WCI  19
WAYNE          CLOUDY    26  22  87 SE6       30.22R WCI  19
$$

NEZ050>053-065>068-078-088>093-181600-
SOUTHEAST NEBRASKA

CITY           SKY/WX    TMP DP  RH WIND       PRES   REMARKS
LINCOLN        LGT SNOW  28  25  88 CALM      30.25R FOG
OMAHA EPPLEY   LGT SNOW  27  23  85 SE8       30.26S FOG     WCI  19
BEATRICE       CLOUDY    27  25  94 CALM      30.22R
FALLS CITY     LGT SNOW  27  25  92 E5        30.24R FOG     WCI  22
NEBRASKA CITY  LGT SNOW  27  27 100 CALM      30.23S
PLATTSMOUTH    LGT SNOW  26  24  91 E6        30.24R WCI  20
$$

NEZ044-045-051>053-067-181600-
OMAHA AREA

CITY           SKY/WX    TMP DP  RH WIND       PRES   REMARKS
OMAHA EPPLEY   LGT SNOW  27  23  85 SE8       30.26S FOG     WCI  19
BLAIR          LGT SNOW  27  24  88 E6        30.22S WCI  20
FREMONT        LGT SNOW  28  26  92 SE5       30.23R WCI  23
MILLARD        LGT SNOW  28  24  86 SE5       30.24R WCI  23
OFFUTT AFB     LGT SNOW  27  23  86 E8        30.24S FOG     WCI  18
PLATTSMOUTH    LGT SNOW  26  24  91 E6        30.24R WCI  20
WAHOO          LGT SNOW  28  25  89 SE6       30.23R WCI  21
$$


USA.gov is the U.S. government's official web portal to all federal, state and local government web resources and services.